Preview of NWS' New Version of Forecast
This preview is not operational and should not be used for support decisions.

Regional Weather Roundup (RWR)

Issued by National Weather Service (NWS)

                            
000
ASUS44 KMEG 201310
RWRTN 
TENNESSEE HOURLY STATE WEATHER ROUNDUP
NATIONAL WEATHER SERVICE MEMPHIS TN
800 AM CDT WED MAR 20 2019

TNZ002-004-019-021-049-052-054-088>092-201400-
WEST TENNESSEE
  
CITY           SKY/WX    TMP DP  RH WIND       PRES   REMARKS
MEMPHIS INTL   FAIR      44  28  53 S8        30.23F                  
NWS MEMPHIS      N/A     41 N/A N/A MISG        N/A                   
JACKSON        FAIR      34  31  88 CALM      30.24F                  
DYERSBURG      FAIR      44  31  60 S5        30.23F                  
SOMERVILLE     SUNNY     39  28  65 CALM      30.22S                  
COVINGTON      SUNNY     43  28  56 CALM      30.23S                  
UNION CITY     SUNNY     41  30  65 S5        30.22S                  
BOLIVAR        SUNNY     34  32  93 CALM      30.24S                  
PARIS          SUNNY     41  27  56 S6        30.23S                  
HUNTINGDON     SUNNY     39  28  65 CALM      30.23S                  
LEXINGTON      SUNNY     34  30  86 CALM      30.25S                  
SAVANNAH       SUNNY     32  30  93 CALM      30.25S                  
$$

TNZ008-025-027-028-033-062-065-066-201400-
NORTH MIDDLE TENNESSEE
  
CITY           SKY/WX    TMP DP  RH WIND       PRES   REMARKS
NASHVILLE      PTSUNNY   36  27  69 CALM      30.26S                  
DICKSON        SUNNY     43  21  42 S7        30.23S                  
CLARKSVILLE    FAIR      34  30  85 S5        30.24S WCI  30          
LEBANON        SUNNY     34  27  75 CALM      30.25S                  
SMYRNA         FAIR      31  29  92 CALM      30.28S                  
MURFREESBORO   SUNNY     36  28  75 CALM      30.25S                  
COOKEVILLE     SUNNY     34  30  86 CALM      30.26R                  
LIVINGSTON     SUNNY     43  19  39 SW5       30.24R                  
GALLATIN       SUNNY     34  28  80 CALM      30.29S                  
CROSSVILLE     FAIR      33  26  75 CALM      30.26S                  
ROCKWOOD       SUNNY     43  16  33 CALM      30.26S                  
$$

TNZ061-075-076-078-094-096-097-201400-
SOUTH MIDDLE TENNESSEE
  
CITY           SKY/WX    TMP DP  RH WIND       PRES   REMARKS
LAWRENCEBURG   SUNNY     34  28  80 CALM      30.25R                  
LEWISBURG      SUNNY     30  27  86 CALM      30.26S                  
FAYETTEVILLE   SUNNY     39  28  65 CALM      30.26R                  
TULLAHOMA      SUNNY     34  28  80 CALM      30.25S                  
WINCHESTER     SUNNY     36  30  80 CALM      30.26S                  
MCMINNVILLE    SUNNY     32  27  80 CALM      30.26S                  
COLUMBIA       SUNNY     32  32 100 CALM      30.25S                  
SHELBYVILLE    SUNNY     34  28  80 E5        30.26S WCI  30          
$$

TNZ017-018-042-046-047-201400-
NORTHEAST TENNESSEE
  
CITY           SKY/WX    TMP DP  RH WIND       PRES   REMARKS
TRI CITIES     FAIR      31  23  72 CALM      30.30R                  
ELIZABETHTON   FAIR      37  23  56 NE6       30.29S WCI  33          
GREENEVILLE    SUNNY     39  21  48 CALM      30.27S                  
$$

TNZ012-013-036-069-073-074-201400-
CENTRAL EAST TENNESSEE
  
CITY           SKY/WX    TMP DP  RH WIND       PRES   REMARKS
KNOXVILLE      FAIR      35  26  69 CALM      30.29R                  
OAK RIDGE      FAIR      34  27  75 CALM      30.31R                  
DOWNTOWN KNOXV SUNNY     34  32  93 CALM      30.31S                  
GATLINBURG     SUNNY     32  27  80 CALM      30.30R                  
MORRISTOWN     SUNNY     36  27  69 CALM      30.27S                  
JACKSBORO      SUNNY     32  27  80 CALM      30.32S                  
$$

TNZ083-085-099-201400-
SOUTHEAST TENNESSEE
  
CITY           SKY/WX    TMP DP  RH WIND       PRES   REMARKS
CHATTANOOGA    FAIR      35  30  82 CALM      30.31R                  
DAYTON         SUNNY     32  30  93 CALM      30.30R FOG              
$$

SKY/WX REPORTED AS FAIR MEANS FEW OR NO CLOUDS BELOW
12 THOUSAND FEET.